Time,TemperatureF,DewpointF,PressureIn,WindDirection,WindDirectionDegrees,WindSpeedMPH,WindSpeedGustMPH,Humidity,HourlyPrecipIn,Conditions,Clouds,dailyrainin,SoftwareType,DateUTC
2013-01-03 00:01:00,38.5,37.2,30.08,North,359,0.0,4.0,95,0.00,,---,0.20,VWS V13.01,2013-01-03 05:01:00,
2013-01-03 00:03:00,38.5,37.2,30.08,North,359,0.0,4.0,95,0.00,,---,0.20,VWS V13.01,2013-01-03 05:03:00,
2013-01-03 00:08:00,38.5,37.2,30.08,North,358,0.0,4.0,95,0.00,,---,0.00,VWS V13.01,2013-01-03 05:08:00,
2013-01-03 00:13:00,38.6,37.3,30.08,North,358,0.0,4.0,95,0.00,,---,0.00,VWS V13.01,2013-01-03 05:13:00,
2013-01-03 00:18:00,38.6,37.3,30.08,North,358,0.0,4.0,95,0.00,,---,0.00,VWS V13.01,2013-01-03 05:18:00,
2013-01-03 00:23:00,38.6,37.3,30.08,North,358,0.0,4.0,95,0.00,,---,0.00,VWS V13.01,2013-01-03 05:23:00,
2013-01-03 00:28:00,38.6,37.3,30.08,North,358,0.0,4.0,95,0.00,,---,0.00,VWS V13.01,2013-01-03 05:28:00,
2013-01-03 00:33:00,38.7,37.4,30.08,North,359,0.0,4.0,95,0.00,,---,0.00,VWS V13.01,2013-01-03 05:33:00,
2013-01-03 00:38:00,38.7,37.4,30.08,North,358,0.0,4.0,95,0.00,,---,0.00,VWS V13.01,2013-01-03 05:38:00,
2013-01-03 00:43:00,38.8,37.5,30.08,North,358,0.0,4.0,95,0.00,,---,0.00,VWS V13.01,2013-01-03 05:43:00,
2013-01-03 00:48:00,38.8,37.5,30.08,North,359,0.0,4.0,95,0.00,,---,0.00,VWS V13.01,2013-01-03 05:48:00,
2013-01-03 00:53:00,38.8,37.5,30.07,North,359,0.0,4.0,95,0.00,,---,0.00,VWS V13.01,2013-01-03 05:53:00,
2013-01-03 00:58:00,38.9,37.6,30.07,North,359,0.0,4.0,95,0.00,,---,0.00,VWS V13.01,2013-01-03 05:58:00,
2013-01-03 01:03:00,38.9,37.6,30.07,North,359,0.0,4.0,95,0.00,,---,0.00,VWS V13.01,2013-01-03 06:03:00,
2013-01-03 01:08:00,38.9,37.6,30.05,North,359,0.0,4.0,95,0.00,,---,0.00,VWS V13.01,2013-01-03 06:08:00,
2013-01-03 01:13:00,38.9,37.6,30.05,North,358,0.0,4.0,95,0.00,,---,0.00,VWS V13.01,2013-01-03 06:13:00,
2013-01-03 01:18:00,38.8,37.5,30.05,North,358,0.0,4.0,95,0.00,,---,0.00,VWS V13.01,2013-01-03 06:18:00,
2013-01-03 01:23:00,38.8,37.5,30.05,North,358,0.0,4.0,95,0.00,,---,0.00,VWS V13.01,2013-01-03 06:23:00,
2013-01-03 01:28:00,38.8,37.5,30.05,North,358,0.0,4.0,95,0.00,,---,0.00,VWS V13.01,2013-01-03 06:28:00,
2013-01-03 01:33:00,38.8,37.5,30.05,North,358,0.0,4.0,95,0.00,,---,0.00,VWS V13.01,2013-01-03 06:33:00,
2013-01-03 01:38:00,38.8,37.5,30.05,North,358,0.0,4.0,95,0.00,,---,0.00,VWS V13.01,2013-01-03 06:38:00,
2013-01-03 01:43:00,38.8,37.5,30.05,North,358,0.0,4.0,95,0.00,,---,0.00,VWS V13.01,2013-01-03 06:43:00,
2013-01-03 01:48:00,38.8,37.5,30.05,North,358,0.0,4.0,95,0.00,,---,0.00,VWS V13.01,2013-01-03 06:48:00,
2013-01-03 01:53:00,38.8,37.5,30.07,North,358,0.0,4.0,95,0.00,,---,0.00,VWS V13.01,2013-01-03 06:53:00,
2013-01-03 01:58:00,38.8,37.5,30.07,North,359,0.0,4.0,95,0.00,,---,0.00,VWS V13.01,2013-01-03 06:58:00,
2013-01-03 02:03:00,38.8,37.5,30.07,North,358,0.0,4.0,95,0.00,,---,0.00,VWS V13.01,2013-01-03 07:03:00,
2013-01-03 02:08:00,38.9,37.6,30.07,North,358,0.0,4.0,95,0.00,,---,0.00,VWS V13.01,2013-01-03 07:08:00,
2013-01-03 02:13:00,38.9,37.6,30.07,North,358,0.0,4.0,95,0.00,,---,0.00,VWS V13.01,2013-01-03 07:13:00,
2013-01-03 02:18:00,39.0,37.7,30.07,North,358,0.0,4.0,95,0.00,,---,0.00,VWS V13.01,2013-01-03 07:18:00,
2013-01-03 02:23:00,39.0,37.7,30.08,North,359,0.0,4.0,95,0.00,,---,0.00,VWS V13.01,2013-01-03 07:23:00,
2013-01-03 02:28:00,39.1,37.8,30.08,North,358,0.0,4.0,95,0.00,,---,0.00,VWS V13.01,2013-01-03 07:28:00,
2013-01-03 02:33:00,39.1,37.8,30.08,North,358,0.0,4.0,95,0.00,,---,0.00,VWS V13.01,2013-01-03 07:33:00,
2013-01-03 02:38:00,39.1,37.8,30.08,North,358,0.0,4.0,95,0.00,,---,0.00,VWS V13.01,2013-01-03 07:38:00,
2013-01-03 02:43:00,39.1,37.8,30.08,North,358,0.0,4.0,95,0.00,,---,0.00,VWS V13.01,2013-01-03 07:43:00,
2013-01-03 02:48:00,39.1,37.8,30.08,North,358,0.0,4.0,95,0.00,,---,0.00,VWS V13.01,2013-01-03 07:48:00,
2013-01-03 02:53:00,39.2,37.9,30.08,North,358,0.0,4.0,95,0.00,,---,0.00,VWS V13.01,2013-01-03 07:53:00,
2013-01-03 02:58:00,39.1,37.8,30.08,North,358,0.0,4.0,95,0.00,,---,0.00,VWS V13.01,2013-01-03 07:58:00,
2013-01-03 03:03:00,39.1,37.8,30.08,North,358,0.0,4.0,95,0.00,,---,0.00,VWS V13.01,2013-01-03 08:03:00,
2013-01-03 03:08:00,39.2,37.9,30.08,North,359,0.0,4.0,95,0.00,,---,0.00,VWS V13.01,2013-01-03 08:08:00,
2013-01-03 03:13:00,39.2,37.9,30.08,North,359,0.0,4.0,95,0.00,,---,0.00,VWS V13.01,2013-01-03 08:13:00,
2013-01-03 03:18:00,39.2,37.9,30.08,North,359,0.0,4.0,95,0.00,,---,0.00,VWS V13.01,2013-01-03 08:18:00,
2013-01-03 03:23:00,39.2,37.9,30.08,North,358,0.0,4.0,95,0.00,,---,0.00,VWS V13.01,2013-01-03 08:23:00,
2013-01-03 03:28:00,39.2,37.9,30.08,North,359,0.0,4.0,95,0.00,,---,0.00,VWS V13.01,2013-01-03 08:28:00,
2013-01-03 03:33:00,39.2,37.9,30.08,North,359,0.0,4.0,95,0.00,,---,0.00,VWS V13.01,2013-01-03 08:33:00,
2013-01-03 03:38:00,39.2,37.9,30.07,North,358,0.0,4.0,95,0.00,,---,0.00,VWS V13.01,2013-01-03 08:38:00,
2013-01-03 03:43:00,39.2,37.9,30.07,North,358,0.0,4.0,95,0.00,,---,0.00,VWS V13.01,2013-01-03 08:43:00,
2013-01-03 03:48:00,39.2,37.9,30.07,North,358,0.0,4.0,95,0.00,,---,0.00,VWS V13.01,2013-01-03 08:48:00,
2013-01-03 03:53:00,39.1,37.8,30.07,North,358,0.0,4.0,95,0.00,,---,0.00,VWS V13.01,2013-01-03 08:53:00,
2013-01-03 03:58:00,39.1,37.8,30.07,North,359,0.0,4.0,95,0.00,,---,0.00,VWS V13.01,2013-01-03 08:58:00,
2013-01-03 04:03:00,39.1,37.5,30.07,North,358,0.0,4.0,94,0.00,,---,0.00,VWS V13.01,2013-01-03 09:03:00,
2013-01-03 04:08:00,39.0,37.4,30.06,North,358,0.0,4.0,94,0.00,,---,0.00,VWS V13.01,2013-01-03 09:08:00,
2013-01-03 04:13:00,38.9,37.3,30.06,North,358,0.0,4.0,94,0.00,,---,0.00,VWS V13.01,2013-01-03 09:13:00,
2013-01-03 04:18:00,38.9,37.6,30.06,North,358,0.0,4.0,95,0.00,,---,0.00,VWS V13.01,2013-01-03 09:18:00,
2013-01-03 04:23:00,38.9,37.6,30.07,North,358,0.0,4.0,95,0.00,,---,0.00,VWS V13.01,2013-01-03 09:23:00,
2013-01-03 04:28:00,38.9,37.6,30.07,North,359,0.0,4.0,95,0.00,,---,0.00,VWS V13.01,2013-01-03 09:28:00,
2013-01-03 04:33:00,39.0,37.7,30.07,North,358,0.0,4.0,95,0.00,,---,0.00,VWS V13.01,2013-01-03 09:33:00,
2013-01-03 04:38:00,39.0,37.7,30.07,North,358,0.0,4.0,95,0.00,,---,0.00,VWS V13.01,2013-01-03 09:38:00,
2013-01-03 04:43:00,39.0,37.7,30.07,North,358,0.0,4.0,95,0.00,,---,0.00,VWS V13.01,2013-01-03 09:43:00,
2013-01-03 04:48:00,39.0,37.7,30.07,North,359,0.0,4.0,95,0.00,,---,0.00,VWS V13.01,2013-01-03 09:48:00,
2013-01-03 04:53:00,39.0,37.7,30.07,North,356,0.0,4.0,95,0.00,,---,0.00,VWS V13.01,2013-01-03 09:53:00,
2013-01-03 04:58:00,39.0,37.7,30.07,North,356,0.0,4.0,95,0.00,,---,0.00,VWS V13.01,2013-01-03 09:58:00,
2013-01-03 05:03:00,39.0,37.7,30.07,North,356,0.0,4.0,95,0.00,,---,0.00,VWS V13.01,2013-01-03 10:03:00,
2013-01-03 05:08:00,39.0,37.7,30.07,North,356,0.0,4.0,95,0.00,,---,0.00,VWS V13.01,2013-01-03 10:08:00,
2013-01-03 05:13:00,39.0,37.7,30.07,North,356,0.0,4.0,95,0.00,,---,0.00,VWS V13.01,2013-01-03 10:13:00,
2013-01-03 05:18:00,39.0,37.7,30.07,North,355,0.0,4.0,95,0.00,,---,0.00,VWS V13.01,2013-01-03 10:18:00,
2013-01-03 05:23:00,39.1,37.8,30.08,North,356,0.0,4.0,95,0.00,,---,0.00,VWS V13.01,2013-01-03 10:23:00,
2013-01-03 05:28:00,39.1,37.8,30.08,North,356,0.0,4.0,95,0.00,,---,0.00,VWS V13.01,2013-01-03 10:28:00,
2013-01-03 05:33:00,39.1,37.8,30.08,North,356,0.0,4.0,95,0.00,,---,0.00,VWS V13.01,2013-01-03 10:33:00,
2013-01-03 05:38:00,39.1,37.8,30.08,North,356,0.0,4.0,95,0.00,,---,0.00,VWS V13.01,2013-01-03 10:38:00,
2013-01-03 05:43:00,39.1,37.8,30.08,North,355,0.0,4.0,95,0.00,,---,0.00,VWS V13.01,2013-01-03 10:43:00,
2013-01-03 05:48:00,39.0,37.7,30.08,North,356,0.0,4.0,95,0.00,,---,0.00,VWS V13.01,2013-01-03 10:48:00,
2013-01-03 05:53:00,39.0,37.7,30.07,North,356,0.0,4.0,95,0.00,,---,0.00,VWS V13.01,2013-01-03 10:53:00,
2013-01-03 05:58:00,39.0,37.7,30.07,North,356,0.0,4.0,95,0.00,,---,0.00,VWS V13.01,2013-01-03 10:58:00,
2013-01-03 06:03:00,39.0,37.7,30.07,North,356,0.0,4.0,95,0.00,,---,0.00,VWS V13.01,2013-01-03 11:03:00,
2013-01-03 06:08:00,39.0,37.7,30.08,North,356,0.0,4.0,95,0.00,,---,0.00,VWS V13.01,2013-01-03 11:08:00,
2013-01-03 06:13:00,39.0,37.7,30.08,North,356,0.0,4.0,95,0.00,,---,0.00,VWS V13.01,2013-01-03 11:13:00,
2013-01-03 06:18:00,39.0,37.7,30.08,North,356,0.0,4.0,95,0.00,,---,0.00,VWS V13.01,2013-01-03 11:18:00,
2013-01-03 06:23:00,39.0,37.7,30.09,North,356,0.0,4.0,95,0.00,,---,0.00,VWS V13.01,2013-01-03 11:23:00,
2013-01-03 06:28:00,39.0,37.7,30.09,North,356,0.0,4.0,95,0.00,,---,0.00,VWS V13.01,2013-01-03 11:28:00,
2013-01-03 06:33:00,39.0,37.7,30.09,North,355,0.0,4.0,95,0.00,,---,0.00,VWS V13.01,2013-01-03 11:33:00,
2013-01-03 06:38:00,39.0,37.7,30.09,North,356,0.0,4.0,95,0.00,,---,0.00,VWS V13.01,2013-01-03 11:38:00,
2013-01-03 06:43:00,39.0,37.7,30.09,North,356,0.0,4.0,95,0.00,,---,0.00,VWS V13.01,2013-01-03 11:43:00,
2013-01-03 06:48:00,39.0,37.7,30.09,North,356,0.0,4.0,95,0.00,,---,0.00,VWS V13.01,2013-01-03 11:48:00,
2013-01-03 06:53:00,39.0,37.7,30.10,North,356,0.0,4.0,95,0.00,,---,0.00,VWS V13.01,2013-01-03 11:53:00,
2013-01-03 06:58:00,39.1,37.8,30.10,North,356,0.0,4.0,95,0.00,,---,0.00,VWS V13.01,2013-01-03 11:58:00,
2013-01-03 07:03:00,39.1,37.8,30.10,North,356,0.0,4.0,95,0.00,,---,0.00,VWS V13.01,2013-01-03 12:03:00,
2013-01-03 07:08:00,39.1,37.8,30.11,North,356,0.0,4.0,95,0.00,,---,0.00,VWS V13.01,2013-01-03 12:08:00,
2013-01-03 07:13:00,39.1,37.8,30.11,North,356,0.0,4.0,95,0.00,,---,0.00,VWS V13.01,2013-01-03 12:13:00,
2013-01-03 07:18:00,39.0,37.7,30.11,North,356,0.0,4.0,95,0.00,,---,0.00,VWS V13.01,2013-01-03 12:18:00,
2013-01-03 07:23:00,39.0,37.7,30.10,North,356,0.0,4.0,95,0.00,,---,0.00,VWS V13.01,2013-01-03 12:23:00,
2013-01-03 07:28:00,39.0,37.7,30.10,North,356,0.0,4.0,95,0.00,,---,0.00,VWS V13.01,2013-01-03 12:28:00,
2013-01-03 07:33:00,39.0,37.7,30.10,North,355,0.0,4.0,95,0.00,,---,0.00,VWS V13.01,2013-01-03 12:33:00,
2013-01-03 07:38:00,39.0,37.7,30.10,North,356,0.0,4.0,95,0.00,,---,0.00,VWS V13.01,2013-01-03 12:38:00,
2013-01-03 07:43:00,39.0,37.7,30.10,North,356,0.0,4.0,95,0.00,,---,0.00,VWS V13.01,2013-01-03 12:43:00,
2013-01-03 07:48:00,39.0,37.7,30.10,North,356,0.0,4.0,95,0.00,,---,0.00,VWS V13.01,2013-01-03 12:48:00,
2013-01-03 07:53:00,39.1,37.8,30.10,North,356,0.0,4.0,95,0.00,,---,0.00,VWS V13.01,2013-01-03 12:53:00,
2013-01-03 07:58:00,39.1,37.8,30.10,North,356,0.0,4.0,95,0.00,,---,0.00,VWS V13.01,2013-01-03 12:58:00,
2013-01-03 08:03:00,39.1,37.8,30.10,North,356,0.0,4.0,95,0.00,,---,0.00,VWS V13.01,2013-01-03 13:03:00,
2013-01-03 08:08:00,39.1,37.5,30.10,North,356,0.0,4.0,94,0.00,,---,0.00,VWS V13.01,2013-01-03 13:08:00,
2013-01-03 08:13:00,39.1,37.5,30.10,North,355,0.0,4.0,94,0.00,,---,0.00,VWS V13.01,2013-01-03 13:13:00,
2013-01-03 08:18:00,39.2,37.6,30.10,North,356,0.0,4.0,94,0.00,,---,0.00,VWS V13.01,2013-01-03 13:18:00,
2013-01-03 08:23:00,39.3,37.7,30.11,North,356,0.0,4.0,94,0.00,,---,0.00,VWS V13.01,2013-01-03 13:23:00,
2013-01-03 08:28:00,39.3,37.7,30.11,North,356,0.0,4.0,94,0.00,,---,0.00,VWS V13.01,2013-01-03 13:28:00,
2013-01-03 08:33:00,39.4,37.8,30.11,NNW,338,0.0,4.0,94,0.00,,---,0.00,VWS V13.01,2013-01-03 13:33:00,
2013-01-03 08:38:00,39.4,37.5,30.11,NNW,338,0.0,4.0,93,0.00,,---,0.00,VWS V13.01,2013-01-03 13:38:00,
2013-01-03 08:43:00,39.5,37.7,30.11,NNW,338,0.0,4.0,93,0.00,,---,0.00,VWS V13.01,2013-01-03 13:43:00,
2013-01-03 08:48:00,39.5,37.7,30.11,NNW,338,0.0,4.0,93,0.00,,---,0.00,VWS V13.01,2013-01-03 13:48:00,
2013-01-03 08:53:00,39.6,37.8,30.12,NNW,338,0.0,4.0,93,0.00,,---,0.00,VWS V13.01,2013-01-03 13:53:00,
2013-01-03 08:58:00,39.7,37.8,30.12,NNW,338,0.0,4.0,93,0.00,,---,0.00,VWS V13.01,2013-01-03 13:58:00,
2013-01-03 09:03:00,39.8,38.0,30.12,NNW,338,0.0,4.0,93,0.00,,---,0.00,VWS V13.01,2013-01-03 14:03:00,
2013-01-03 09:08:00,39.9,37.8,30.12,NNW,338,0.0,4.0,92,0.00,,---,0.00,VWS V13.01,2013-01-03 14:08:00,
2013-01-03 09:13:00,39.9,37.8,30.12,NNW,338,0.0,4.0,92,0.00,,---,0.00,VWS V13.01,2013-01-03 14:13:00,
2013-01-03 09:18:00,39.9,37.5,30.12,NNW,338,0.0,4.0,91,0.00,,---,0.00,VWS V13.01,2013-01-03 14:18:00,
2013-01-03 09:23:00,40.0,37.6,30.13,NNW,338,0.0,4.0,91,0.00,,---,0.00,VWS V13.01,2013-01-03 14:23:00,
2013-01-03 09:28:00,40.0,37.6,30.13,NNW,338,0.0,4.0,91,0.00,,---,0.00,VWS V13.01,2013-01-03 14:28:00,
2013-01-03 09:33:00,40.0,37.6,30.13,NW,326,0.0,4.0,91,0.00,,---,0.00,VWS V13.01,2013-01-03 14:33:00,
2013-01-03 09:38:00,40.1,37.4,30.12,NW,326,0.0,4.0,90,0.00,,---,0.00,VWS V13.01,2013-01-03 14:38:00,
2013-01-03 09:43:00,40.2,37.5,30.12,NW,326,0.0,4.0,90,0.00,,---,0.00,VWS V13.01,2013-01-03 14:43:00,
2013-01-03 09:48:00,40.3,37.6,30.12,NW,326,0.0,4.0,90,0.00,,---,0.00,VWS V13.01,2013-01-03 14:48:00,
2013-01-03 09:53:00,40.5,37.8,30.12,NW,326,0.0,4.0,90,0.00,,---,0.00,VWS V13.01,2013-01-03 14:53:00,
2013-01-03 09:58:00,40.7,38.0,30.12,WNW,284,0.0,4.0,90,0.00,,---,0.00,VWS V13.01,2013-01-03 14:58:00,
2013-01-03 10:03:00,40.8,37.8,30.12,WNW,283,0.0,4.0,89,0.00,,---,0.00,VWS V13.01,2013-01-03 15:03:00,
2013-01-03 10:08:00,40.9,37.6,30.13,WNW,285,0.0,4.0,88,0.00,,---,0.00,VWS V13.01,2013-01-03 15:08:00,
2013-01-03 10:13:00,40.9,37.6,30.13,WNW,285,0.0,4.0,88,0.00,,---,0.00,VWS V13.01,2013-01-03 15:13:00,
2013-01-03 10:18:00,40.9,37.6,30.13,WNW,284,0.0,4.0,88,0.00,,---,0.00,VWS V13.01,2013-01-03 15:18:00,
2013-01-03 10:23:00,41.1,37.8,30.13,WNW,284,0.0,4.0,88,0.00,,---,0.00,VWS V13.01,2013-01-03 15:23:00,
2013-01-03 10:28:00,41.2,37.9,30.13,West,269,0.0,4.0,88,0.00,,---,0.00,VWS V13.01,2013-01-03 15:28:00,
2013-01-03 10:33:00,41.3,37.1,30.13,West,269,0.0,4.0,85,0.00,,---,0.00,VWS V13.01,2013-01-03 15:33:00,
2013-01-03 10:38:00,41.3,37.4,30.13,West,269,0.0,4.0,86,0.00,,---,0.00,VWS V13.01,2013-01-03 15:38:00,
2013-01-03 10:43:00,41.5,37.6,30.13,West,269,0.0,4.0,86,0.00,,---,0.00,VWS V13.01,2013-01-03 15:43:00,
2013-01-03 10:48:00,41.7,38.4,30.13,West,269,0.0,4.0,88,0.00,,---,0.00,VWS V13.01,2013-01-03 15:48:00,
2013-01-03 10:53:00,42.0,38.1,30.13,West,269,0.0,4.0,86,0.00,,---,0.00,VWS V13.01,2013-01-03 15:53:00,
2013-01-03 10:58:00,42.3,38.1,30.13,West,269,0.0,4.0,85,0.00,,---,0.00,VWS V13.01,2013-01-03 15:58:00,
2013-01-03 11:03:00,42.4,38.2,30.13,West,269,0.0,4.0,85,0.00,,---,0.00,VWS V13.01,2013-01-03 16:03:00,
2013-01-03 11:08:00,42.5,38.0,30.13,West,269,0.0,4.0,84,0.00,,---,0.00,VWS V13.01,2013-01-03 16:08:00,
2013-01-03 11:13:00,42.6,38.4,30.13,West,269,0.0,4.0,85,0.00,,---,0.00,VWS V13.01,2013-01-03 16:13:00,
2013-01-03 11:18:00,42.5,38.3,30.13,West,269,0.0,4.0,85,0.00,,---,0.00,VWS V13.01,2013-01-03 16:18:00,
2013-01-03 11:23:00,42.5,38.0,30.11,West,268,0.0,4.0,84,0.00,,---,0.00,VWS V13.01,2013-01-03 16:23:00,
2013-01-03 11:28:00,42.4,37.6,30.11,WSW,253,0.0,4.0,83,0.00,,---,0.00,VWS V13.01,2013-01-03 16:28:00,
2013-01-03 11:33:00,42.5,38.3,30.11,WSW,254,0.0,4.0,85,0.00,,---,0.00,VWS V13.01,2013-01-03 16:33:00,
2013-01-03 11:38:00,42.7,38.2,30.11,WSW,253,0.0,4.0,84,0.00,,---,0.00,VWS V13.01,2013-01-03 16:38:00,
2013-01-03 11:43:00,42.7,38.2,30.11,WSW,253,0.0,4.0,84,0.00,,---,0.00,VWS V13.01,2013-01-03 16:43:00,
2013-01-03 11:48:00,42.7,37.9,30.11,WSW,254,0.0,4.0,83,0.00,,---,0.00,VWS V13.01,2013-01-03 16:48:00,
2013-01-03 11:53:00,42.8,38.3,30.09,WSW,252,0.0,4.0,84,0.00,,---,0.00,VWS V13.01,2013-01-03 16:53:00,
2013-01-03 11:58:00,43.0,38.5,30.09,WSW,252,0.0,4.0,84,0.00,,---,0.00,VWS V13.01,2013-01-03 16:58:00,
2013-01-03 12:03:00,43.1,37.7,30.09,WSW,252,0.0,4.0,81,0.00,,---,0.00,VWS V13.01,2013-01-03 17:03:00,
2013-01-03 12:08:00,43.1,38.3,30.08,WSW,252,0.0,4.0,83,0.00,,---,0.00,VWS V13.01,2013-01-03 17:08:00,
2013-01-03 12:13:00,43.3,38.5,30.08,WSW,253,0.0,4.0,83,0.00,,---,0.00,VWS V13.01,2013-01-03 17:13:00,
2013-01-03 12:18:00,43.5,38.7,30.08,WSW,257,0.0,4.0,83,0.00,,---,0.00,VWS V13.01,2013-01-03 17:18:00,
2013-01-03 12:23:00,43.5,38.1,30.08,WSW,256,0.0,4.0,81,0.00,,---,0.00,VWS V13.01,2013-01-03 17:23:00,
2013-01-03 12:28:00,43.3,37.6,30.08,WSW,257,0.0,4.0,80,0.00,,---,0.00,VWS V13.01,2013-01-03 17:28:00,
2013-01-03 12:33:00,43.4,38.3,30.08,WSW,257,0.0,4.0,82,0.00,,---,0.00,VWS V13.01,2013-01-03 17:33:00,
2013-01-03 12:38:00,43.5,38.4,30.08,WSW,257,0.0,4.0,82,0.00,,---,0.00,VWS V13.01,2013-01-03 17:38:00,
2013-01-03 12:43:00,43.5,37.8,30.08,WSW,257,0.0,4.0,80,0.00,,---,0.00,VWS V13.01,2013-01-03 17:43:00,
2013-01-03 12:48:00,43.6,38.2,30.08,WSW,258,0.0,4.0,81,0.00,,---,0.00,VWS V13.01,2013-01-03 17:48:00,
2013-01-03 12:53:00,43.8,39.0,30.07,WSW,257,0.0,4.0,83,0.00,,---,0.00,VWS V13.01,2013-01-03 17:53:00,
2013-01-03 12:58:00,44.0,38.2,30.07,WSW,257,0.0,4.0,80,0.00,,---,0.00,VWS V13.01,2013-01-03 17:58:00,
2013-01-03 13:03:00,44.0,37.9,30.07,WSW,257,0.0,4.0,79,0.00,,---,0.00,VWS V13.01,2013-01-03 18:03:00,
2013-01-03 13:08:00,43.9,38.1,30.06,WSW,257,0.0,4.0,80,0.00,,---,0.00,VWS V13.01,2013-01-03 18:08:00,
2013-01-03 13:13:00,43.7,38.3,30.06,WSW,257,0.0,4.0,81,0.00,,---,0.00,VWS V13.01,2013-01-03 18:13:00,
2013-01-03 13:18:00,43.6,38.2,30.06,WSW,256,0.0,4.0,81,0.00,,---,0.00,VWS V13.01,2013-01-03 18:18:00,
2013-01-03 13:23:00,43.5,38.1,30.07,WSW,257,0.0,4.0,81,0.00,,---,0.00,VWS V13.01,2013-01-03 18:23:00,
2013-01-03 13:28:00,43.4,38.6,30.07,WSW,256,0.0,4.0,83,0.00,,---,0.00,VWS V13.01,2013-01-03 18:28:00,
2013-01-03 13:33:00,43.2,38.1,30.07,WSW,256,0.0,4.0,82,0.00,,---,0.00,VWS V13.01,2013-01-03 18:33:00,
2013-01-03 13:38:00,43.2,38.1,30.06,WSW,256,0.0,4.0,82,0.00,,---,0.00,VWS V13.01,2013-01-03 18:38:00,
2013-01-03 13:43:00,43.3,37.9,30.06,WSW,257,0.0,4.0,81,0.00,,---,0.00,VWS V13.01,2013-01-03 18:43:00,
2013-01-03 13:48:00,43.0,37.6,30.06,WSW,256,0.0,4.0,81,0.00,,---,0.00,VWS V13.01,2013-01-03 18:48:00,
2013-01-03 13:53:00,42.9,37.8,30.07,WSW,256,0.0,4.0,82,0.00,,---,0.00,VWS V13.01,2013-01-03 18:53:00,
2013-01-03 13:58:00,42.7,37.6,30.07,WSW,256,0.0,4.0,82,0.00,,---,0.00,VWS V13.01,2013-01-03 18:58:00,
2013-01-03 14:03:00,42.6,37.5,30.07,WSW,256,0.0,4.0,82,0.00,,---,0.00,VWS V13.01,2013-01-03 19:03:00,
2013-01-03 14:08:00,42.5,37.7,30.07,WSW,256,0.0,4.0,83,0.00,,---,0.00,VWS V13.01,2013-01-03 19:08:00,
2013-01-03 14:13:00,42.5,37.4,30.07,WSW,257,0.0,4.0,82,0.00,,---,0.00,VWS V13.01,2013-01-03 19:13:00,
2013-01-03 14:18:00,42.5,37.7,30.07,WSW,256,0.0,4.0,83,0.00,,---,0.00,VWS V13.01,2013-01-03 19:18:00,
2013-01-03 14:55:00,42.2,37.7,30.07,WSW,240,0.0,4.0,84,0.00,,---,0.00,VWS V13.01,2013-01-03 19:55:00,
2013-01-03 15:00:00,42.1,37.6,30.07,WSW,240,0.0,4.0,84,0.00,,---,0.00,VWS V13.01,2013-01-03 20:00:00,
2013-01-03 15:05:00,42.0,37.5,30.07,WSW,240,0.0,4.0,84,0.00,,---,0.00,VWS V13.01,2013-01-03 20:05:00,
2013-01-03 15:10:00,41.9,37.7,30.08,WSW,240,0.0,4.0,85,0.00,,---,0.00,VWS V13.01,2013-01-03 20:10:00,
2013-01-03 15:15:00,41.9,37.7,30.08,WSW,240,0.0,4.0,85,0.00,,---,0.00,VWS V13.01,2013-01-03 20:15:00,
2013-01-03 15:20:00,41.8,37.3,30.08,WSW,240,0.0,4.0,84,0.00,,---,0.00,VWS V13.01,2013-01-03 20:20:00,
2013-01-03 15:25:00,41.7,37.2,30.08,SW,233,0.0,4.0,84,0.00,,---,0.00,VWS V13.01,2013-01-03 20:25:00,
2013-01-03 15:30:00,41.6,37.1,30.08,SW,232,0.0,4.0,84,0.00,,---,0.00,VWS V13.01,2013-01-03 20:30:00,
2013-01-03 15:35:00,41.5,37.0,30.08,SW,230,0.0,4.0,84,0.00,,---,0.00,VWS V13.01,2013-01-03 20:35:00,
2013-01-03 15:40:00,41.5,37.3,30.09,SW,230,0.0,4.0,85,0.00,,---,0.00,VWS V13.01,2013-01-03 20:40:00,
2013-01-03 15:45:00,41.4,37.2,30.09,SW,230,0.0,4.0,85,0.00,,---,0.00,VWS V13.01,2013-01-03 20:45:00,
2013-01-03 15:50:00,41.3,37.1,30.09,SW,231,0.0,4.0,85,0.00,,---,0.00,VWS V13.01,2013-01-03 20:50:00,
2013-01-03 15:55:00,41.3,36.8,30.10,SW,231,0.0,4.0,84,0.00,,---,0.00,VWS V13.01,2013-01-03 20:55:00,
2013-01-03 16:00:00,41.2,36.7,30.10,WSW,238,0.0,4.0,84,0.00,,---,0.00,VWS V13.01,2013-01-03 21:00:00,
2013-01-03 16:05:00,41.1,36.6,30.10,WSW,238,0.0,4.0,84,0.00,,---,0.00,VWS V13.01,2013-01-03 21:05:00,
2013-01-03 16:10:00,41.0,36.8,30.10,WSW,238,0.0,4.0,85,0.00,,---,0.00,VWS V13.01,2013-01-03 21:10:00,
2013-01-03 16:15:00,40.9,36.5,30.10,WSW,238,0.0,4.0,84,0.00,,---,0.00,VWS V13.01,2013-01-03 21:15:00,
2013-01-03 16:20:00,40.8,36.7,30.10,WSW,239,0.0,4.0,85,0.00,,---,0.00,VWS V13.01,2013-01-03 21:20:00,
2013-01-03 16:25:00,40.7,36.5,30.11,WSW,239,0.0,4.0,85,0.00,,---,0.00,VWS V13.01,2013-01-03 21:25:00,
2013-01-03 16:30:00,40.7,36.5,30.11,WSW,239,0.0,4.0,85,0.00,,---,0.00,VWS V13.01,2013-01-03 21:30:00,
2013-01-03 16:35:00,40.7,36.2,30.11,WSW,239,0.0,4.0,84,0.00,,---,0.00,VWS V13.01,2013-01-03 21:35:00,
2013-01-03 16:40:00,40.6,36.2,30.11,WSW,252,0.0,4.0,84,0.00,,---,0.00,VWS V13.01,2013-01-03 21:40:00,
2013-01-03 16:45:00,40.5,36.3,30.11,WSW,250,0.0,4.0,85,0.00,,---,0.00,VWS V13.01,2013-01-03 21:45:00,
2013-01-03 16:50:00,40.5,36.3,30.11,WSW,250,0.0,4.0,85,0.00,,---,0.00,VWS V13.01,2013-01-03 21:50:00,
2013-01-03 16:55:00,40.4,36.3,30.12,WSW,250,0.0,4.0,85,0.00,,---,0.00,VWS V13.01,2013-01-03 21:55:00,
2013-01-03 17:00:00,40.4,36.3,30.12,WSW,250,0.0,4.0,85,0.00,,---,0.00,VWS V13.01,2013-01-03 22:00:00,
2013-01-03 17:05:00,40.4,36.5,30.12,WSW,250,0.0,4.0,86,0.00,,---,0.00,VWS V13.01,2013-01-03 22:05:00,
2013-01-03 17:10:00,40.4,36.5,30.12,WSW,250,0.0,4.0,86,0.00,,---,0.00,VWS V13.01,2013-01-03 22:10:00,
2013-01-03 17:15:00,40.3,35.9,30.12,WSW,250,0.0,4.0,84,0.00,,---,0.00,VWS V13.01,2013-01-03 22:15:00,
2013-01-03 17:20:00,40.2,35.8,30.12,WSW,250,0.0,4.0,84,0.00,,---,0.00,VWS V13.01,2013-01-03 22:20:00,
2013-01-03 17:25:00,40.1,35.7,30.11,WSW,250,0.0,4.0,84,0.00,,---,0.00,VWS V13.01,2013-01-03 22:25:00,
2013-01-03 17:30:00,40.0,35.9,30.11,WSW,250,0.0,4.0,85,0.00,,---,0.00,VWS V13.01,2013-01-03 22:30:00,
2013-01-03 17:35:00,40.0,36.2,30.11,WSW,250,0.0,4.0,86,0.00,,---,0.00,VWS V13.01,2013-01-03 22:35:00,
2013-01-03 17:40:00,39.9,36.1,30.12,WSW,250,0.0,4.0,86,0.00,,---,0.00,VWS V13.01,2013-01-03 22:40:00,
2013-01-03 17:45:00,39.8,36.0,30.12,WSW,250,0.0,4.0,86,0.00,,---,0.00,VWS V13.01,2013-01-03 22:45:00,
2013-01-03 17:50:00,39.5,35.7,30.12,WSW,250,0.0,4.0,86,0.00,,---,0.00,VWS V13.01,2013-01-03 22:50:00,
2013-01-03 17:55:00,39.2,35.4,30.12,WSW,250,0.0,4.0,86,0.00,,---,0.00,VWS V13.01,2013-01-03 22:55:00,
2013-01-03 18:00:00,38.7,34.6,30.12,WSW,250,0.0,4.0,85,0.00,,---,0.00,VWS V13.01,2013-01-03 23:00:00,
2013-01-03 18:05:00,38.3,34.5,30.12,WSW,250,0.0,4.0,86,0.00,,---,0.00,VWS V13.01,2013-01-03 23:05:00,
2013-01-03 18:10:00,37.8,34.3,30.12,WSW,250,0.0,4.0,87,0.00,,---,0.00,VWS V13.01,2013-01-03 23:10:00,
2013-01-03 18:15:00,37.3,34.1,30.12,WSW,250,0.0,4.0,88,0.00,,---,0.00,VWS V13.01,2013-01-03 23:15:00,
2013-01-03 18:20:00,36.9,33.7,30.12,WSW,250,0.0,4.0,88,0.00,,---,0.00,VWS V13.01,2013-01-03 23:20:00,
2013-01-03 18:25:00,36.5,33.6,30.13,WSW,250,0.0,4.0,89,0.00,,---,0.00,VWS V13.01,2013-01-03 23:25:00,
2013-01-03 18:30:00,36.1,33.2,30.13,WSW,250,0.0,4.0,89,0.00,,---,0.00,VWS V13.01,2013-01-03 23:30:00,
2013-01-03 18:35:00,35.8,33.2,30.13,WSW,250,0.0,4.0,90,0.00,,---,0.00,VWS V13.01,2013-01-03 23:35:00,
2013-01-03 18:40:00,35.5,32.9,30.14,WSW,250,0.0,4.0,90,0.00,,---,0.00,VWS V13.01,2013-01-03 23:40:00,
2013-01-03 18:45:00,35.2,32.8,30.14,WSW,250,0.0,4.0,91,0.00,,---,0.00,VWS V13.01,2013-01-03 23:45:00,
2013-01-03 18:50:00,35.0,32.6,30.14,WSW,250,0.0,4.0,91,0.00,,---,0.00,VWS V13.01,2013-01-03 23:50:00,
2013-01-03 18:55:00,34.8,32.7,30.14,WSW,250,0.0,4.0,92,0.00,,---,0.00,VWS V13.01,2013-01-03 23:55:00,
2013-01-03 19:00:00,34.5,32.4,30.14,WSW,250,0.0,4.0,92,0.00,,---,0.00,VWS V13.01,2013-01-04 00:00:00,
2013-01-03 19:05:00,34.2,31.9,30.14,WSW,250,0.0,4.0,91,0.00,,---,0.00,VWS V13.01,2013-01-04 00:05:00,
2013-01-03 19:10:00,33.8,31.5,30.14,WSW,250,0.0,4.0,91,0.00,,---,0.00,VWS V13.01,2013-01-04 00:10:00,
2013-01-03 19:15:00,33.5,31.2,30.14,WSW,250,0.0,4.0,91,0.00,,---,0.00,VWS V13.01,2013-01-04 00:15:00,
2013-01-03 19:20:00,33.2,31.1,30.14,WSW,250,0.0,4.0,92,0.00,,---,0.00,VWS V13.01,2013-01-04 00:20:00,
2013-01-03 19:25:00,33.0,31.2,30.15,WSW,250,0.0,4.0,93,0.00,,---,0.00,VWS V13.01,2013-01-04 00:25:00,
2013-01-03 19:30:00,32.7,30.9,30.15,WSW,250,0.0,4.0,93,0.00,,---,0.00,VWS V13.01,2013-01-04 00:30:00,
2013-01-03 19:35:00,32.4,30.6,30.15,WSW,250,0.0,4.0,93,0.00,,---,0.00,VWS V13.01,2013-01-04 00:35:00,
2013-01-03 19:40:00,32.1,30.3,30.15,WSW,250,0.0,4.0,93,0.00,,---,0.00,VWS V13.01,2013-01-04 00:40:00,
2013-01-03 19:45:00,31.8,30.0,30.15,WSW,250,0.0,4.0,93,0.00,,---,0.00,VWS V13.01,2013-01-04 00:45:00,
2013-01-03 19:50:00,31.7,30.2,30.15,WSW,250,0.0,4.0,94,0.00,,---,0.00,VWS V13.01,2013-01-04 00:50:00,
2013-01-03 19:55:00,31.5,30.0,30.15,WSW,250,0.0,4.0,94,0.00,,---,0.00,VWS V13.01,2013-01-04 00:55:00,
2013-01-03 20:00:00,31.3,29.8,30.15,WSW,250,0.0,4.0,94,0.00,,---,0.00,VWS V13.01,2013-01-04 01:00:00,
2013-01-03 20:05:00,31.0,29.5,30.15,WSW,250,0.0,4.0,94,0.00,,---,0.00,VWS V13.01,2013-01-04 01:05:00,
2013-01-03 20:10:00,30.8,29.3,30.16,WSW,250,0.0,4.0,94,0.00,,---,0.00,VWS V13.01,2013-01-04 01:10:00,
2013-01-03 20:15:00,30.6,29.1,30.16,WSW,250,0.0,4.0,94,0.00,,---,0.00,VWS V13.01,2013-01-04 01:15:00,
2013-01-03 20:20:00,30.5,29.2,30.16,WSW,250,0.0,4.0,95,0.00,,---,0.00,VWS V13.01,2013-01-04 01:20:00,
2013-01-03 20:25:00,30.4,29.1,30.16,WSW,250,0.0,4.0,95,0.00,,---,0.00,VWS V13.01,2013-01-04 01:25:00,
2013-01-03 20:30:00,30.1,28.8,30.16,WSW,250,0.0,4.0,95,0.00,,---,0.00,VWS V13.01,2013-01-04 01:30:00,
2013-01-03 20:35:00,30.0,28.7,30.16,WSW,250,0.0,4.0,95,0.00,,---,0.00,VWS V13.01,2013-01-04 01:35:00,
2013-01-03 20:40:00,29.8,28.5,30.16,WSW,250,0.0,4.0,95,0.00,,---,0.00,VWS V13.01,2013-01-04 01:40:00,
2013-01-03 20:45:00,29.6,28.4,30.16,WSW,250,0.0,4.0,95,0.00,,---,0.00,VWS V13.01,2013-01-04 01:45:00,
2013-01-03 20:50:00,29.6,28.4,30.16,WSW,250,0.0,4.0,95,0.00,,---,0.00,VWS V13.01,2013-01-04 01:50:00,
2013-01-03 20:55:00,29.6,28.4,30.16,WSW,250,0.0,4.0,95,0.00,,---,0.00,VWS V13.01,2013-01-04 01:55:00,
2013-01-03 21:00:00,29.4,28.1,30.16,WSW,250,0.0,4.0,95,0.00,,---,0.00,VWS V13.01,2013-01-04 02:00:00,
2013-01-03 21:05:00,29.2,28.0,30.16,WSW,250,0.0,4.0,95,0.00,,---,0.00,VWS V13.01,2013-01-04 02:05:00,
2013-01-03 21:10:00,29.1,27.9,30.16,WSW,250,0.0,4.0,95,0.00,,---,0.00,VWS V13.01,2013-01-04 02:10:00,
2013-01-03 21:15:00,29.0,27.8,30.16,WSW,250,0.0,4.0,95,0.00,,---,0.00,VWS V13.01,2013-01-04 02:15:00,
2013-01-03 21:20:00,28.8,27.5,30.16,WSW,250,0.0,4.0,95,0.00,,---,0.00,VWS V13.01,2013-01-04 02:20:00,
2013-01-03 21:25:00,28.6,27.4,30.16,WSW,251,0.0,4.0,95,0.00,,---,0.00,VWS V13.01,2013-01-04 02:25:00,
2013-01-03 21:30:00,28.6,27.4,30.16,WSW,250,0.0,4.0,95,0.00,,---,0.00,VWS V13.01,2013-01-04 02:30:00,
2013-01-03 21:35:00,28.4,27.1,30.16,WSW,250,0.0,4.0,95,0.00,,---,0.00,VWS V13.01,2013-01-04 02:35:00,
2013-01-03 21:40:00,28.3,27.0,30.16,WSW,250,0.0,4.0,95,0.00,,---,0.00,VWS V13.01,2013-01-04 02:40:00,
2013-01-03 21:45:00,28.2,27.0,30.16,WSW,250,0.0,4.0,95,0.00,,---,0.00,VWS V13.01,2013-01-04 02:45:00,
2013-01-03 21:50:00,28.2,27.2,30.16,WSW,250,0.0,4.0,96,0.00,,---,0.00,VWS V13.01,2013-01-04 02:50:00,
2013-01-03 21:55:00,28.1,27.1,30.17,WSW,250,0.0,4.0,96,0.00,,---,0.00,VWS V13.01,2013-01-04 02:55:00,
2013-01-03 22:00:00,28.0,27.0,30.17,WSW,250,0.0,4.0,96,0.00,,---,0.00,VWS V13.01,2013-01-04 03:00:00,
2013-01-03 22:05:00,27.8,26.8,30.17,WSW,250,0.0,4.0,96,0.00,,---,0.00,VWS V13.01,2013-01-04 03:05:00,
2013-01-03 22:10:00,27.7,26.7,30.17,WSW,250,0.0,4.0,96,0.00,,---,0.00,VWS V13.01,2013-01-04 03:10:00,
2013-01-03 22:15:00,27.7,26.7,30.17,WSW,250,0.0,4.0,96,0.00,,---,0.00,VWS V13.01,2013-01-04 03:15:00,
2013-01-03 22:20:00,27.7,26.7,30.17,WSW,250,0.0,4.0,96,0.00,,---,0.00,VWS V13.01,2013-01-04 03:20:00,
2013-01-03 22:25:00,27.6,26.6,30.16,WSW,250,0.0,4.0,96,0.00,,---,0.00,VWS V13.01,2013-01-04 03:25:00,
2013-01-03 22:30:00,27.5,26.5,30.16,WSW,250,0.0,4.0,96,0.00,,---,0.00,VWS V13.01,2013-01-04 03:30:00,
2013-01-03 22:35:00,27.4,26.4,30.16,WSW,250,0.0,4.0,96,0.00,,---,0.00,VWS V13.01,2013-01-04 03:35:00,
2013-01-03 22:40:00,27.4,26.4,30.17,WSW,250,0.0,4.0,96,0.00,,---,0.00,VWS V13.01,2013-01-04 03:40:00,
2013-01-03 22:45:00,27.4,26.4,30.17,WSW,250,0.0,4.0,96,0.00,,---,0.00,VWS V13.01,2013-01-04 03:45:00,
2013-01-03 22:50:00,27.4,26.4,30.17,WSW,250,0.0,4.0,96,0.00,,---,0.00,VWS V13.01,2013-01-04 03:50:00,
2013-01-03 22:55:00,27.4,26.4,30.17,WSW,250,0.0,4.0,96,0.00,,---,0.00,VWS V13.01,2013-01-04 03:55:00,
2013-01-03 23:00:00,27.3,26.3,30.17,WSW,250,0.0,4.0,96,0.00,,---,0.00,VWS V13.01,2013-01-04 04:00:00,
2013-01-03 23:05:00,27.2,26.2,30.17,WSW,250,0.0,4.0,96,0.00,,---,0.00,VWS V13.01,2013-01-04 04:05:00,
2013-01-03 23:10:00,27.1,26.1,30.17,WSW,250,0.0,4.0,96,0.00,,---,0.00,VWS V13.01,2013-01-04 04:10:00,
2013-01-03 23:15:00,27.1,26.1,30.17,WSW,250,0.0,4.0,96,0.00,,---,0.00,VWS V13.01,2013-01-04 04:15:00,
2013-01-03 23:20:00,27.1,26.1,30.17,WSW,250,0.0,4.0,96,0.00,,---,0.00,VWS V13.01,2013-01-04 04:20:00,
2013-01-03 23:25:00,27.1,26.1,30.17,WSW,250,0.0,4.0,96,0.00,,---,0.00,VWS V13.01,2013-01-04 04:25:00,
2013-01-03 23:30:00,27.1,26.1,30.17,WSW,250,0.0,4.0,96,0.00,,---,0.00,VWS V13.01,2013-01-04 04:30:00,
2013-01-03 23:35:00,27.1,26.1,30.17,WSW,250,0.0,4.0,96,0.00,,---,0.00,VWS V13.01,2013-01-04 04:35:00,
2013-01-03 23:40:00,27.1,26.1,30.17,WSW,250,0.0,4.0,96,0.00,,---,0.00,VWS V13.01,2013-01-04 04:40:00,
2013-01-03 23:45:00,27.1,26.1,30.17,WSW,250,0.0,4.0,96,0.00,,---,0.00,VWS V13.01,2013-01-04 04:45:00,
2013-01-03 23:50:00,27.1,26.1,30.17,WSW,250,0.0,4.0,96,0.00,,---,0.00,VWS V13.01,2013-01-04 04:50:00,
2013-01-03 23:55:00,27.0,26.0,30.17,WSW,250,0.0,4.0,96,0.00,,---,0.00,VWS V13.01,2013-01-04 04:55:00,